Time,TemperatureF,DewpointF,PressureIn,WindDirection,WindDirectionDegrees,WindSpeedMPH,WindSpeedGustMPH,Humidity,HourlyPrecipIn,Conditions,Clouds,dailyrainin,SoftwareType,DateUTC
2013-01-18 00:04:00,32.0,31.5,30.11,SSE,157,0.0,-999.0,98,-99.99,,,0.00,Acu-Link.com,2013-01-18 05:04:00,
2013-01-18 00:19:00,31.5,31.0,30.12,South,180,0.0,-999.0,98,-99.99,,,0.00,Acu-Link.com,2013-01-18 05:19:00,
2013-01-18 00:34:00,31.3,30.8,30.13,WNW,292,0.0,-999.0,98,-99.99,,,0.00,Acu-Link.com,2013-01-18 05:34:00,
2013-01-18 00:49:00,30.7,30.2,30.13,South,180,0.0,-999.0,98,-99.99,,,0.00,Acu-Link.com,2013-01-18 05:49:00,
2013-01-18 01:04:00,30.7,30.2,30.14,North,0,0.0,-999.0,98,-99.99,,,0.01,Acu-Link.com,2013-01-18 06:04:00,
2013-01-18 01:20:00,30.4,29.9,30.14,NNW,337,0.0,-999.0,98,-99.99,,,0.01,Acu-Link.com,2013-01-18 06:20:00,
2013-01-18 01:35:00,30.2,29.7,30.15,NNW,337,0.0,-999.0,98,-99.99,,,0.01,Acu-Link.com,2013-01-18 06:35:00,
2013-01-18 01:50:00,30.0,29.5,30.16,North,0,0.0,-999.0,98,-99.99,,,0.01,Acu-Link.com,2013-01-18 06:50:00,
2013-01-18 02:05:00,29.8,29.3,30.16,North,0,0.0,-999.0,98,-99.99,,,0.01,Acu-Link.com,2013-01-18 07:05:00,
2013-01-18 02:20:00,29.7,29.2,30.17,North,0,0.0,-999.0,98,-99.99,,,0.01,Acu-Link.com,2013-01-18 07:20:00,
2013-01-18 02:35:00,29.1,28.6,30.15,NNE,22,0.0,-999.0,98,-99.99,,,0.01,Acu-Link.com,2013-01-18 07:35:00,
2013-01-18 02:50:00,29.3,28.8,30.15,ENE,67,0.0,-999.0,98,-99.99,,,0.01,Acu-Link.com,2013-01-18 07:50:00,
2013-01-18 03:05:00,29.3,28.8,30.15,West,270,0.0,-999.0,98,-99.99,,,0.01,Acu-Link.com,2013-01-18 08:05:00,
2013-01-18 03:20:00,28.9,28.4,30.17,ESE,112,0.0,-999.0,98,-99.99,,,0.01,Acu-Link.com,2013-01-18 08:20:00,
2013-01-18 03:36:00,29.1,28.6,30.17,NW,315,0.0,-999.0,98,-99.99,,,0.01,Acu-Link.com,2013-01-18 08:36:00,
2013-01-18 03:51:00,29.1,28.6,30.18,NNW,337,0.0,-999.0,98,-99.99,,,0.01,Acu-Link.com,2013-01-18 08:51:00,
2013-01-18 04:06:00,28.9,28.4,30.18,NNE,22,0.0,-999.0,98,-99.99,,,0.01,Acu-Link.com,2013-01-18 09:06:00,
2013-01-18 04:21:00,28.6,28.1,30.18,South,180,0.0,-999.0,98,-99.99,,,0.01,Acu-Link.com,2013-01-18 09:21:00,
2013-01-18 04:36:00,28.4,27.9,30.18,ENE,67,0.0,-999.0,98,-99.99,,,0.01,Acu-Link.com,2013-01-18 09:36:00,
2013-01-18 04:51:00,28.0,27.5,30.18,ENE,67,0.0,-999.0,98,-99.99,,,0.01,Acu-Link.com,2013-01-18 09:51:00,
2013-01-18 05:06:00,27.7,27.2,30.17,NW,315,0.0,-999.0,98,-99.99,,,0.01,Acu-Link.com,2013-01-18 10:06:00,
2013-01-18 05:21:00,27.7,27.2,30.18,ESE,112,0.0,-999.0,98,-99.99,,,0.01,Acu-Link.com,2013-01-18 10:21:00,
2013-01-18 05:36:00,27.1,26.6,30.18,NNW,337,0.0,-999.0,98,-99.99,,,0.01,Acu-Link.com,2013-01-18 10:36:00,
2013-01-18 05:52:00,27.5,27.0,30.19,NNW,337,0.0,-999.0,98,-99.99,,,0.01,Acu-Link.com,2013-01-18 10:52:00,
2013-01-18 06:07:00,27.5,27.0,30.19,SE,135,0.0,-999.0,98,-99.99,,,0.01,Acu-Link.com,2013-01-18 11:07:00,
2013-01-18 06:22:00,27.5,27.0,30.20,WNW,292,0.0,-999.0,98,-99.99,,,0.01,Acu-Link.com,2013-01-18 11:22:00,
2013-01-18 06:37:00,27.1,26.6,30.21,NNW,337,0.0,-999.0,98,-99.99,,,0.01,Acu-Link.com,2013-01-18 11:37:00,
2013-01-18 06:53:00,26.8,26.3,30.22,East,90,0.0,-999.0,98,-99.99,,,0.01,Acu-Link.com,2013-01-18 11:53:00,
2013-01-18 07:08:00,26.8,26.3,30.21,North,0,0.0,-999.0,98,-99.99,,,0.01,Acu-Link.com,2013-01-18 12:08:00,
2013-01-18 07:23:00,27.0,26.5,30.20,NNW,337,0.0,-999.0,98,-99.99,,,0.01,Acu-Link.com,2013-01-18 12:23:00,
2013-01-18 07:39:00,27.3,26.8,30.20,South,180,0.0,-999.0,98,-99.99,,,0.01,Acu-Link.com,2013-01-18 12:39:00,
2013-01-18 07:54:00,27.1,26.6,30.22,SSE,157,0.0,-999.0,98,-99.99,,,0.01,Acu-Link.com,2013-01-18 12:54:00,
2013-01-18 08:09:00,26.8,26.3,30.23,SSW,202,0.0,-999.0,98,-99.99,,,0.01,Acu-Link.com,2013-01-18 13:09:00,
2013-01-18 08:24:00,26.8,26.3,30.25,West,270,0.0,-999.0,98,-99.99,,,0.01,Acu-Link.com,2013-01-18 13:24:00,
2013-01-18 08:40:00,28.2,27.7,30.26,NW,315,0.0,-999.0,98,-99.99,,,0.01,Acu-Link.com,2013-01-18 13:40:00,
2013-01-18 08:55:00,29.3,28.8,30.27,NNW,337,0.0,-999.0,98,-99.99,,,0.01,Acu-Link.com,2013-01-18 13:55:00,
2013-01-18 09:10:00,30.9,30.4,30.28,North,0,1.1,-999.0,98,-99.99,,,0.01,Acu-Link.com,2013-01-18 14:10:00,
2013-01-18 09:26:00,32.5,32.0,30.28,NNW,337,0.0,-999.0,98,-99.99,,,0.01,Acu-Link.com,2013-01-18 14:26:00,
2013-01-18 09:41:00,35.6,35.1,30.29,West,270,0.0,-999.0,98,-99.99,,,0.01,Acu-Link.com,2013-01-18 14:41:00,
2013-01-18 09:56:00,36.9,36.4,30.30,WSW,247,1.7,-999.0,98,-99.99,,,0.01,Acu-Link.com,2013-01-18 14:56:00,
2013-01-18 10:11:00,36.9,36.4,30.31,WNW,292,0.0,-999.0,98,-99.99,,,0.01,Acu-Link.com,2013-01-18 15:11:00,
2013-01-18 10:27:00,39.0,38.5,30.31,NNW,337,0.0,-999.0,98,-99.99,,,0.01,Acu-Link.com,2013-01-18 15:27:00,
2013-01-18 10:42:00,38.3,37.8,30.32,West,270,0.0,-999.0,98,-99.99,,,0.01,Acu-Link.com,2013-01-18 15:42:00,
2013-01-18 10:57:00,39.7,39.2,30.31,WNW,292,0.0,-999.0,98,-99.99,,,0.01,Acu-Link.com,2013-01-18 15:57:00,
2013-01-18 11:12:00,40.1,39.6,30.31,NW,315,1.7,-999.0,98,-99.99,,,0.06,Acu-Link.com,2013-01-18 16:12:00,
2013-01-18 11:28:00,40.6,40.1,30.31,SSW,202,0.0,-999.0,98,-99.99,,,0.07,Acu-Link.com,2013-01-18 16:28:00,
2013-01-18 11:43:00,41.0,40.5,30.32,SW,225,0.0,-999.0,98,-99.99,,,0.07,Acu-Link.com,2013-01-18 16:43:00,
2013-01-18 11:58:00,42.3,41.8,30.31,NNE,22,0.0,-999.0,98,-99.99,,,0.09,Acu-Link.com,2013-01-18 16:58:00,
2013-01-18 12:13:00,43.0,38.8,30.30,SE,135,0.0,-999.0,85,-99.99,,,0.11,Acu-Link.com,2013-01-18 17:13:00,
2013-01-18 12:29:00,43.7,37.3,30.29,NW,315,0.0,-999.0,78,-99.99,,,0.13,Acu-Link.com,2013-01-18 17:29:00,
2013-01-18 12:44:00,45.1,37.7,30.28,SW,225,0.0,-999.0,75,-99.99,,,0.15,Acu-Link.com,2013-01-18 17:44:00,
2013-01-18 12:59:00,45.0,38.6,30.29,West,270,2.2,-999.0,78,-99.99,,,0.16,Acu-Link.com,2013-01-18 17:59:00,
2013-01-18 13:14:00,45.7,37.5,30.28,North,0,1.1,-999.0,73,-99.99,,,0.19,Acu-Link.com,2013-01-18 18:14:00,
2013-01-18 13:29:00,46.9,35.0,30.27,NNE,22,1.7,-999.0,63,-99.99,,,0.20,Acu-Link.com,2013-01-18 18:29:00,
2013-01-18 13:45:00,47.1,34.8,30.27,West,270,0.0,-999.0,62,-99.99,,,0.20,Acu-Link.com,2013-01-18 18:45:00,
2013-01-18 14:00:00,48.4,37.2,30.26,ENE,67,0.0,-999.0,65,-99.99,,,0.21,Acu-Link.com,2013-01-18 19:00:00,
2013-01-18 14:15:00,49.5,36.6,30.25,South,180,0.0,-999.0,61,-99.99,,,0.21,Acu-Link.com,2013-01-18 19:15:00,
2013-01-18 14:30:00,49.5,36.2,30.25,ENE,67,0.0,-999.0,60,-99.99,,,0.21,Acu-Link.com,2013-01-18 19:30:00,
2013-01-18 14:45:00,49.5,36.2,30.25,SSW,202,1.1,-999.0,60,-99.99,,,0.21,Acu-Link.com,2013-01-18 19:45:00,
2013-01-18 15:00:00,49.5,35.8,30.24,NNW,337,0.0,-999.0,59,-99.99,,,0.21,Acu-Link.com,2013-01-18 20:00:00,
2013-01-18 15:15:00,48.6,34.9,30.24,West,270,0.0,-999.0,59,-99.99,,,0.21,Acu-Link.com,2013-01-18 20:15:00,
2013-01-18 15:30:00,50.2,37.3,30.24,NE,45,0.0,-999.0,61,-99.99,,,0.21,Acu-Link.com,2013-01-18 20:30:00,
2013-01-18 15:45:00,49.1,35.4,30.23,NNW,337,2.2,-999.0,59,-99.99,,,0.21,Acu-Link.com,2013-01-18 20:45:00,
2013-01-18 16:01:00,48.7,36.3,30.24,SSW,202,0.0,-999.0,62,-99.99,,,0.21,Acu-Link.com,2013-01-18 21:01:00,
2013-01-18 16:16:00,48.9,35.6,30.23,North,0,2.7,-999.0,60,-99.99,,,0.21,Acu-Link.com,2013-01-18 21:16:00,
2013-01-18 16:31:00,50.0,35.4,30.23,NW,315,0.0,-999.0,57,-99.99,,,0.21,Acu-Link.com,2013-01-18 21:31:00,
2013-01-18 16:46:00,48.6,33.2,30.23,WNW,292,0.0,-999.0,55,-99.99,,,0.21,Acu-Link.com,2013-01-18 21:46:00,
2013-01-18 17:01:00,48.2,36.6,30.24,SSW,202,0.0,-999.0,64,-99.99,,,0.21,Acu-Link.com,2013-01-18 22:01:00,
2013-01-18 17:16:00,46.9,37.3,30.23,NNE,22,0.0,-999.0,69,-99.99,,,0.21,Acu-Link.com,2013-01-18 22:16:00,
2013-01-18 17:31:00,46.2,34.7,30.23,NNE,22,0.0,-999.0,64,-99.99,,,0.21,Acu-Link.com,2013-01-18 22:31:00,
2013-01-18 17:47:00,45.1,35.5,30.23,NNE,22,0.0,-999.0,69,-99.99,,,0.21,Acu-Link.com,2013-01-18 22:47:00,
2013-01-18 18:02:00,43.9,35.1,30.22,NNE,22,0.0,-999.0,71,-99.99,,,0.21,Acu-Link.com,2013-01-18 23:02:00,
2013-01-18 18:17:00,42.8,35.1,30.21,NNE,22,0.0,-999.0,74,-99.99,,,0.21,Acu-Link.com,2013-01-18 23:17:00,
2013-01-18 18:32:00,41.7,37.2,30.22,NNE,22,0.0,-999.0,84,-99.99,,,0.21,Acu-Link.com,2013-01-18 23:32:00,
2013-01-18 18:48:00,40.6,36.2,30.22,NNE,22,0.0,-999.0,84,-99.99,,,0.21,Acu-Link.com,2013-01-18 23:48:00,
2013-01-18 19:03:00,39.6,36.6,30.22,NNE,22,0.0,-999.0,89,-99.99,,,0.21,Acu-Link.com,2013-01-19 00:03:00,
2013-01-18 19:18:00,39.0,38.5,30.23,NNE,22,0.0,-999.0,98,-99.99,,,0.21,Acu-Link.com,2013-01-19 00:18:00,
2013-01-18 19:33:00,38.1,37.6,30.22,NNE,22,0.0,-999.0,98,-99.99,,,0.21,Acu-Link.com,2013-01-19 00:33:00,
2013-01-18 19:49:00,37.0,36.5,30.22,NNE,22,0.0,-999.0,98,-99.99,,,0.21,Acu-Link.com,2013-01-19 00:49:00,
2013-01-18 20:04:00,36.3,35.8,30.21,NNE,22,0.0,-999.0,98,-99.99,,,0.21,Acu-Link.com,2013-01-19 01:04:00,
2013-01-18 20:19:00,35.6,35.1,30.21,NNE,22,0.0,-999.0,98,-99.99,,,0.21,Acu-Link.com,2013-01-19 01:19:00,
2013-01-18 20:34:00,35.1,34.6,30.20,NNE,22,0.0,-999.0,98,-99.99,,,0.21,Acu-Link.com,2013-01-19 01:34:00,
2013-01-18 20:50:00,34.5,34.0,30.21,ESE,112,0.0,-999.0,98,-99.99,,,0.21,Acu-Link.com,2013-01-19 01:50:00,
2013-01-18 21:05:00,34.2,33.7,30.21,SSW,202,0.0,-999.0,98,-99.99,,,0.21,Acu-Link.com,2013-01-19 02:05:00,
2013-01-18 21:20:00,34.0,33.5,30.21,South,180,0.0,-999.0,98,-99.99,,,0.21,Acu-Link.com,2013-01-19 02:20:00,
2013-01-18 21:35:00,33.6,33.1,30.22,SSE,157,0.0,-999.0,98,-99.99,,,0.21,Acu-Link.com,2013-01-19 02:35:00,
2013-01-18 21:51:00,32.9,32.4,30.22,NW,315,0.0,-999.0,98,-99.99,,,0.21,Acu-Link.com,2013-01-19 02:51:00,
2013-01-18 22:06:00,32.5,32.0,30.21,ESE,112,0.0,-999.0,98,-99.99,,,0.21,Acu-Link.com,2013-01-19 03:06:00,
2013-01-18 22:21:00,32.4,31.9,30.20,North,0,0.0,-999.0,98,-99.99,,,0.21,Acu-Link.com,2013-01-19 03:21:00,
2013-01-18 22:36:00,32.0,31.5,30.20,ESE,112,0.0,-999.0,98,-99.99,,,0.21,Acu-Link.com,2013-01-19 03:36:00,
2013-01-18 22:52:00,31.3,30.8,30.20,West,270,0.0,-999.0,98,-99.99,,,0.21,Acu-Link.com,2013-01-19 03:52:00,
2013-01-18 23:07:00,30.9,30.4,30.20,West,270,0.0,-999.0,98,-99.99,,,0.21,Acu-Link.com,2013-01-19 04:07:00,
2013-01-18 23:22:00,30.6,30.1,30.20,SW,225,0.0,-999.0,98,-99.99,,,0.21,Acu-Link.com,2013-01-19 04:22:00,
2013-01-18 23:37:00,30.0,29.5,30.19,WNW,292,0.0,-999.0,98,-99.99,,,0.21,Acu-Link.com,2013-01-19 04:37:00,
2013-01-18 23:53:00,29.8,29.3,30.19,WNW,292,0.0,-999.0,98,-99.99,,,0.21,Acu-Link.com,2013-01-19 04:53:00,